Regional Weather Roundup
Issued by NWS

Home | Current Version | Previous Version | Text Only | Print | Product List | Glossary Off
Versions: 1 2 3 4 5 6 7 8 9 10 11 12 13 14 15 16 17 18 19 20 21 22 23 24 25 26 27 28 29 30 31 32 33 34 35 36 37 38 39 40 41 42 43 44 45 46 47 48 49 50

000
ASUS45 KBOI 241810
RWRID

IDAHO REGIONAL WEATHER ROUNDUP
NATIONAL WEATHER SERVICE BOISE ID
1200 PM MDT FRI MAR 24 2017

NOTE: "FAIR" INDICATES FEW OR NO CLOUDS BELOW 12000 FEET
WITH NO SIGNIFICANT WEATHER AND/OR OBSTRUCTIONS TO VISIBILITY

IDZ012-014-241900-
SOUTHWEST IDAHO


CITY           SKY/WX    TMP DP  RH WIND       PRES   REMARKS
BOISE          LGT RAIN  50  35  56 SE16G24   30.04R
CALDWELL       LGT RAIN  46  36  68 E7        30.04R
MOUNTAIN HOME  LGT RAIN  49  35  59 SE12      30.05R
$$

IDZ016-017-241900-
SOUTHCENTRAL IDAHO


CITY           SKY/WX    TMP DP  RH WIND       PRES   REMARKS
BURLEY         SUNNY     54  24  31 VRB7      30.09F
JEROME         MOSUNNY   56  26  31 E15G23    30.08F
TWIN FALLS     MOSUNNY   56  25  30 S23G35    30.04F
$$

IDZ019>023-241900-
SOUTHEAST IDAHO


CITY           SKY/WX    TMP DP  RH WIND       PRES   REMARKS
IDAHO FALLS    SUNNY     51  24  34 S15       30.16F
POCATELLO      SUNNY     52  21  30 S22G28    30.16S
REXBURG        SUNNY     49  24  37 S12       30.16F
$$

IDZ006-010-011-018-031-032-241900-
CENTRAL IDAHO MOUNTAINS


CITY           SKY/WX    TMP DP  RH WIND       PRES   REMARKS
MCCALL         LGT RAIN  36  30  79 S16       29.98R WCI  26
HAILEY         MOSUNNY   43  23  45 S6        30.13F
STANLEY          N/A     43  22  43 S16G29    30.01F
SALMON         SUNNY     48  27  43 CALM      29.97F
CHALLIS        SUNNY     51  22  31 S20G28    29.99F
$$

IDZ002-004-006-007-026-241900-
NORTHERN IDAHO


CITY           SKY/WX    TMP DP  RH WIND       PRES   REMARKS
LEWISTON       CLOUDY    48  36  63 E7        29.88F
LOWELL           N/A     49  33  54 CALM      29.92F
COEUR D`ALENE  LGT RAIN  38  35  89 N13       29.88F WCI  30
MULLAN PASS    CLOUDY    32  28  85 VRB6      29.84S WCI  26
$$



USA.gov is the U.S. government's official web portal to all federal, state and local government web resources and services.